FW8463 Weather Reports


Display with metric or nautical units.
time (UTC)temp
F
wind
direction
speed
MPH
gust
MPH
rain 1hr
in
rain 24hr
in
rain mn
in
humidity
%
barometer
mb
20210120035035 34 231 9.0 15.0 0.00 0.00 0.00 56 1021.0
20210120034611 34 246 8.0 14.0 0.00 0.00 0.00 56 1021.1
20210120034029 34 236 7.0 13.0 0.00 0.00 0.00 55 1021.2
20210120033535 34 243 6.0 11.0 0.00 0.00 0.00 55 1021.2
20210120033044 34 228 7.0 12.0 0.00 0.00 0.00 55 1021.3
20210120032529 34 223 8.0 12.0 0.00 0.00 0.00 55 1021.4
20210120032022 34 234 6.0 12.0 0.00 0.00 0.00 56 1021.4
20210120031541 33 232 7.0 11.0 0.00 0.00 0.00 57 1021.4
20210120031030 33 240 6.0 11.0 0.00 0.00 0.00 57 1021.5
20210120030533 32 271 5.0 10.0 0.00 0.00 0.00 59 1021.5
20210120030044 32 228 3.0 7.0 0.00 0.00 0.00 61 1021.4
20210120025523 32 232 4.0 7.0 0.00 0.00 0.00 61 1021.3
20210120025035 32 234 4.0 8.0 0.00 0.00 0.00 61 1021.4
20210120024539 32 228 5.0 8.0 0.00 0.00 0.00 60 1021.4
20210120024029 32 240 6.0 8.0 0.00 0.00 0.00 60 1021.4
20210120023523 32 226 5.0 7.0 0.00 0.00 0.00 61 1021.4
20210120023103 32 228 4.0 6.0 0.00 0.00 0.00 61 1021.4
20210120022540 32 237 4.0 7.0 0.00 0.00 0.00 60 1021.6
20210120022021 32 231 5.0 7.0 0.00 0.00 0.00 59 1021.7
20210120021532 32 213 4.0 6.0 0.00 0.00 0.00 59 1021.7
20210120021022 32 217 4.0 6.0 0.00 0.00 0.00 60 1021.9
20210120020530 31 217 4.0 6.0 0.00 0.00 0.00 60 1021.9
20210120020034 31 217 3.0 5.0 0.00 0.00 0.00 61 1022.0
20210120015524 31 212 2.0 5.0 0.00 0.00 0.00 61 1022.0
20210120015025 31 224 3.0 5.0 0.00 0.00 0.00 62 1022.0
20210120014542 31 229 3.0 4.0 0.00 0.00 0.00 62 1022.3
20210120014029 31 233 2.0 4.0 0.00 0.00 0.00 63 1022.4
20210120013527 30 220 3.0 5.0 0.00 0.00 0.00 62 1022.3
20210120013104 30 221 3.0 5.0 0.00 0.00 0.00 62 1022.4
20210120012546 30 223 3.0 5.0 0.00 0.00 0.00 61 1022.3
20210120012044 30 215 2.0 4.0 0.00 0.00 0.00 62 1022.4
20210120011551 30 214 2.0 4.0 0.00 0.00 0.00 61 1022.4
20210120011028 30 217 2.0 4.0 0.00 0.00 0.00 62 1022.4
20210120010522 30 232 2.0 4.0 0.00 0.00 0.00 62 1022.4
20210120010052 30 232 2.0 4.0 0.00 0.00 0.00 62 1022.5
20210120005524 30 223 2.0 3.0 0.00 0.00 0.00 62 1022.5
20210120005030 30 223 2.0 4.0 0.00 0.00 0.00 62 1022.6
20210120004528 30 222 2.0 4.0 0.00 0.00 0.00 62 1022.6
20210120004032 30 223 3.0 4.0 0.00 0.00 0.00 62 1022.7
20210120003523 30 224 3.0 4.0 0.00 0.00 0.00 61 1022.8
20210120003028 30 223 2.0 3.0 0.00 0.00 0.00 61 1022.7
20210120002519 30 223 2.0 3.0 0.00 0.00 0.00 61 1022.9
20210120002033 30 225 2.0 3.0 0.00 0.00 0.00 61 1023.0
20210120001629 31 226 1.0 2.0 0.00 0.00 0.00 61 1023.1
20210120001042 31 229 1.0 2.0 0.00 0.00 0.00 61 1023.0
20210120000538 31 231 1.0 2.0 0.00 0.00 0.00 61 1023.1
20210120000104 31 230 1.0 2.0 0.00 0.00 0.00 61 1023.3
20210119235522 31 230 1.0 2.0 0.00 0.00 0.00 61 1023.3
20210119235031 31 231 0.0 2.0 0.00 0.00 0.00 60 1023.3
20210119234529 31 231 0.0 2.0 0.00 0.00 0.00 61 1023.4
20210119234030 31 231 0.0 2.0 0.00 0.00 0.00 61 1023.4
20210119233529 31 231 1.0 2.0 0.00 0.00 0.00 61 1023.4
20210119233050 31 231 1.0 2.0 0.00 0.00 0.00 61 1023.4
20210119232524 31 231 0.0 1.0 0.00 0.00 0.00 60 1023.4
20210119232026 32 231 0.0 2.0 0.00 0.00 0.00 60 1023.5
20210119231555 32 231 0.0 2.0 0.00 0.00 0.00 61 1023.5
20210119231025 32 231 0.0 3.0 0.00 0.00 0.00 60 1023.5
20210119230517 32 231 1.0 3.0 0.00 0.00 0.00 61 1023.4
20210119230057 32 230 2.0 4.0 0.00 0.00 0.00 61 1023.6
20210119225520 32 232 2.0 4.0 0.00 0.00 0.00 61 1023.6
20210119225026 32 233 2.0 4.0 0.00 0.00 0.00 60 1023.7
20210119224534 32 225 3.0 4.0 0.00 0.00 0.00 60 1023.5
20210119224028 33 225 3.0 5.0 0.00 0.00 0.00 59 1023.6
20210119223526 34 229 3.0 6.0 0.00 0.00 0.00 58 1023.5
20210119223102 35 230 3.0 7.0 0.00 0.00 0.00 58 1023.5
20210119222522 35 231 5.0 7.0 0.00 0.00 0.00 57 1023.5
20210119222024 36 225 4.0 7.0 0.00 0.00 0.00 57 1023.6
20210119221557 37 229 3.0 9.0 0.00 0.00 0.00 57 1023.6
20210119221041 37 234 4.0 7.0 0.00 0.00 0.00 57 1023.6
20210119220533 37 227 4.0 8.0 0.00 0.00 0.00 57 1023.6
20210119220040 38 228 5.0 9.0 0.00 0.00 0.00 56 1023.7
20210119215513 38 225 6.0 9.0 0.00 0.00 0.00 55 1023.6
20210119215020 38 227 5.0 11.0 0.00 0.00 0.00 55 1023.6
20210119214526 39 237 7.0 12.0 0.00 0.00 0.00 52 1023.7
20210119214021 39 256 5.0 10.0 0.00 0.00 0.00 52 1023.6
20210119213524 39 229 6.0 12.0 0.00 0.00 0.00 48 1023.8
20210119213030 39 227 9.0 12.0 0.00 0.00 0.00 51 1023.8
20210119212518 40 259 6.0 12.0 0.00 0.00 0.00 47 1023.8
20210119212029 40 275 6.0 11.0 0.00 0.00 0.00 51 1023.8
20210119211533 40 252 8.0 12.0 0.00 0.00 0.00 51 1023.8
20210119211024 40 289 7.0 14.0 0.00 0.00 0.00 53 1023.9
20210119210529 40 233 9.0 14.0 0.00 0.00 0.00 52 1023.9
20210119210031 40 227 9.0 15.0 0.00 0.00 0.00 52 1023.9
20210119205520 40 215 11.0 15.0 0.00 0.00 0.00 49 1023.8
20210119205019 40 258 9.0 17.0 0.00 0.00 0.00 53 1023.9
20210119204543 40 211 9.0 14.0 0.00 0.00 0.00 51 1023.8
20210119204021 40 228 10.0 14.0 0.00 0.00 0.00 52 1023.9
20210119203520 41 225 5.0 12.0 0.00 0.00 0.00 51 1024.0
20210119203024 40 243 7.0 12.0 0.00 0.00 0.00 49 1024.0
20210119202532 40 235 8.0 12.0 0.00 0.00 0.00 51 1024.0
20210119202027 40 223 10.0 12.0 0.00 0.00 0.00 50 1023.9
20210119201520 40 236 6.0 11.0 0.00 0.00 0.00 50 1024.1
20210119201021 40 231 5.0 11.0 0.00 0.00 0.00 52 1024.1
20210119200516 40 272 5.0 9.0 0.00 0.00 0.00 48 1024.0
20210119200048 40 243 4.0 11.0 0.00 0.00 0.00 49 1024.1
20210119195512 40 275 4.0 13.0 0.00 0.00 0.00 51 1024.1
20210119195025 40 267 6.0 15.0 0.00 0.00 0.00 54 1024.0
20210119194524 40 225 8.0 12.0 0.00 0.00 0.00 55 1024.0
20210119194019 39 231 3.0 8.0 0.00 0.00 0.00 53 1024.0
20210119193513 39 266 5.0 11.0 0.00 0.00 0.00 56 1024.0
20210119193021 39 232 3.0 11.0 0.00 0.00 0.00 53 1024.2
20210119192512 39 269 5.0 11.0 0.00 0.00 0.00 53 1024.3
20210119192011 39 275 8.0 11.0 0.00 0.00 0.00 54 1024.2
20210119191524 39 240 6.0 11.0 0.00 0.00 0.00 60 1024.2
20210119191019 39 213 5.0 12.0 0.00 0.00 0.00 56 1024.3
20210119190514 39 265 5.0 12.0 0.00 0.00 0.00 58 1024.2
20210119190011 39 273 4.0 11.0 0.00 0.00 0.00 58 1024.3
20210119185613 39 239 4.0 11.0 0.00 0.00 0.00 57 1024.3
20210119185102 39 268 3.0 11.0 0.00 0.00 0.00 56 1024.5
20210119184628 39 232 3.0 10.0 0.00 0.00 0.00 57 1024.5
20210119184109 38 234 6.0 10.0 0.00 0.00 0.00 61 1024.7
20210119183611 38 275 4.0 11.0 0.00 0.00 0.00 59 1024.8
20210119183155 38 254 7.0 11.0 0.00 0.00 0.00 56 1024.7
20210119182558 38 236 6.0 12.0 0.00 0.00 0.00 56 1024.7
20210119182057 38 246 5.0 12.0 0.00 0.00 0.00 56 1024.8
20210119181729 37 278 5.0 11.0 0.00 0.00 0.00 55 1024.7
20210119181056 37 230 6.0 11.0 0.00 0.00 0.00 56 1024.8
20210119180554 37 237 6.0 11.0 0.00 0.00 0.00 55 1024.8
20210119180154 37 242 5.0 10.0 0.00 0.00 0.00 55 1024.8
20210119175606 37 242 5.0 12.0 0.00 0.00 0.00 55 1024.9
20210119175114 36 240 6.0 12.0 0.00 0.00 0.00 56 1025.0
20210119174625 36 271 4.0 10.0 0.00 0.00 0.00 59 1025.0
20210119174053 36 255 5.0 10.0 0.00 0.00 0.00 58 1025.0
20210119173548 36 239 5.0 13.0 0.00 0.00 0.00 59 1025.0
20210119173238 36 225 4.0 13.0 0.00 0.00 0.00 57 1025.1
20210119172558 35 211 3.0 11.0 0.00 0.00 0.00 58 1025.2
20210119172048 35 246 6.0 11.0 0.00 0.00 0.00 59 1025.2
20210119171633 35 254 4.0 11.0 0.00 0.00 0.00 59 1025.3
20210119171044 34 289 5.0 13.0 0.00 0.00 0.00 59 1025.5
20210119170558 34 288 7.0 13.0 0.00 0.00 0.00 57 1025.5
20210119170123 34 263 8.0 12.0 0.00 0.00 0.00 57 1025.7
20210119165544 34 310 4.0 10.0 0.00 0.00 0.00 66 1025.7
20210119165040 34 254 6.0 11.0 0.00 0.00 0.00 66 1025.7
20210119164638 34 248 6.0 10.0 0.00 0.00 0.00 65 1025.7
20210119164041 33 223 6.0 11.0 0.00 0.00 0.00 65 1025.7
20210119163557 33 230 5.0 11.0 0.00 0.00 0.00 65 1025.6
20210119163056 33 243 6.0 11.0 0.00 0.00 0.00 67 1025.4
20210119162541 33 231 6.0 9.0 0.00 0.00 0.00 67 1025.4
20210119162040 32 229 7.0 9.0 0.00 0.00 0.00 66 1025.4
20210119161617 32 230 7.0 11.0 0.00 0.00 0.00 67 1025.5
20210119161040 32 229 7.0 11.0 0.00 0.00 0.00 68 1025.4
20210119160547 32 225 9.0 11.0 0.00 0.00 0.00 67 1025.4
20210119160136 32 244 6.0 10.0 0.00 0.00 0.00 68 1025.4
20210119155530 31 224 7.0 10.0 0.00 0.00 0.00 68 1025.3
20210119155032 31 229 7.0 10.0 0.00 0.00 0.00 68 1025.3
20210119154612 31 225 6.0 10.0 0.00 0.00 0.00 69 1025.2
20210119154029 31 229 6.0 9.0 0.00 0.00 0.00 70 1025.2
20210119153536 31 229 6.0 9.0 0.00 0.00 0.00 69 1025.1
20210119153123 30 245 4.0 9.0 0.00 0.00 0.00 71 1025.1
20210119152525 30 242 6.0 9.0 0.00 0.00 0.00 70 1025.2
20210119152029 30 223 5.0 8.0 0.00 0.00 0.00 70 1025.1
20210119151540 30 231 5.0 8.0 0.00 0.00 0.00 71 1025.1
20210119151022 30 246 3.0 7.0 0.00 0.00 0.00 72 1025.3
20210119150523 29 234 3.0 5.0 0.00 0.00 0.00 72 1025.2
20210119150050 29 233 3.0 5.0 0.00 0.00 0.00 72 1025.0
20210119145528 29 233 2.0 5.0 0.00 0.00 0.00 73 1025.1
20210119145021 29 235 2.0 7.0 0.00 0.00 0.00 72 1025.3
20210119144557 28 262 3.0 5.0 0.00 0.00 0.00 73 1025.3
20210119144027 28 240 1.0 4.0 0.00 0.00 0.00 74 1025.1
20210119143521 28 257 2.0 5.0 0.00 0.00 0.00 74 1025.1
20210119143026 27 242 1.0 5.0 0.00 0.00 0.00 75 1025.0
20210119142523 27 232 2.0 4.0 0.00 0.00 0.00 75 1024.9
20210119142021 27 231 3.0 4.0 0.00 0.00 0.00 75 1024.9
20210119141522 26 234 3.0 5.0 0.00 0.00 0.00 75 1025.0
20210119141031 26 236 2.0 4.0 0.00 0.00 0.00 76 1025.0
20210119140514 25 232 2.0 3.0 0.00 0.00 0.00 75 1025.1
20210119140030 24 231 1.0 3.0 0.00 0.00 0.00 74 1025.0
20210119135519 24 231 1.0 3.0 0.00 0.00 0.00 74 1025.0
20210119135031 24 231 1.0 3.0 0.00 0.00 0.00 72 1025.1
20210119134515 24 230 2.0 3.0 0.00 0.00 0.00 71 1025.0
20210119134021 25 234 1.0 4.0 0.00 0.00 0.00 70 1024.9
20210119133601 26 235 2.0 5.0 0.00 0.00 0.00 70 1024.9
20210119133215 26 274 3.0 5.0 0.00 0.00 0.00 71 1024.8
20210119132611 26 245 2.0 7.0 0.00 0.00 0.00 71 1024.6
20210119132106 26 275 3.0 7.0 0.00 0.00 0.00 71 1024.6
20210119131909 27 275 3.0 7.0 0.00 0.00 0.00 70 1024.6
20210119131104 27 281 3.0 7.0 0.00 0.00 0.00 70 1024.6
20210119130557 27 270 3.0 7.0 0.00 0.00 0.00 70 1024.5
20210119130127 28 284 3.0 7.0 0.00 0.00 0.00 70 1024.5
20210119125605 28 281 2.0 7.0 0.00 0.00 0.00 70 1024.4
20210119125055 28 275 1.0 7.0 0.00 0.00 0.00 70 1024.3
20210119124648 28 278 3.0 7.0 0.00 0.00 0.00 70 1024.2
20210119124105 29 267 2.0 6.0 0.00 0.00 0.00 71 1024.1
20210119123556 29 279 2.0 7.0 0.00 0.00 0.00 71 1024.1
20210119123105 29 265 3.0 7.0 0.00 0.00 0.00 71 1023.9
20210119122555 29 294 2.0 9.0 0.00 0.00 0.00 71 1023.9
20210119122046 29 286 5.0 10.0 0.00 0.00 0.00 70 1023.8
20210119121555 30 273 6.0 10.0 0.00 0.00 0.00 70 1023.7
20210119121044 30 278 6.0 9.0 0.00 0.00 0.00 70 1023.4
20210119120605 30 282 4.0 8.0 0.00 0.00 0.00 71 1023.4
20210119120133 30 265 2.0 9.0 0.00 0.00 0.00 71 1023.4
20210119115543 30 256 4.0 9.0 0.00 0.00 0.00 71 1023.4
20210119115044 30 242 5.0 8.0 0.00 0.00 0.00 71 1023.4
20210119114610 30 279 3.0 9.0 0.00 0.00 0.00 70 1023.3
20210119114047 30 254 5.0 9.0 0.00 0.00 0.00 71 1023.3
20210119113557 30 283 4.0 9.0 0.00 0.00 0.00 71 1023.1
20210119113050 30 276 5.0 11.0 0.00 0.00 0.00 70 1023.1
20210119112605 30 276 6.0 11.0 0.00 0.00 0.00 70 1023.0
20210119112045 30 275 7.0 11.0 0.00 0.00 0.00 70 1022.8
20210119111608 30 282 5.0 13.0 0.00 0.00 0.00 70 1022.8
20210119111036 30 273 7.0 13.0 0.00 0.00 0.00 70 1022.8
20210119110540 31 289 8.0 10.0 0.00 0.00 0.00 71 1022.6
20210119110141 31 269 5.0 10.0 0.00 0.00 0.00 71 1022.7
20210119105537 31 277 5.0 10.0 0.00 0.00 0.00 71 1022.6
20210119105038 31 281 7.0 10.0 0.00 0.00 0.00 71 1022.5
20210119104615 31 286 6.0 10.0 0.00 0.00 0.00 72 1022.4
20210119104032 31 292 5.0 9.0 0.00 0.00 0.00 72 1022.5
20210119103531 31 284 4.0 10.0 0.00 0.00 0.00 72 1022.3
20210119103111 31 239 5.0 10.0 0.00 0.00 0.00 72 1022.2
20210119102532 31 290 4.0 9.0 0.00 0.00 0.00 72 1022.0
20210119102030 31 254 5.0 9.0 0.00 0.00 0.00 72 1022.0
20210119101602 31 261 5.0 9.0 0.00 0.00 0.00 72 1022.0
20210119101033 31 244 5.0 11.0 0.00 0.00 0.00 72 1021.9
20210119100535 31 275 6.0 11.0 0.00 0.00 0.00 73 1021.9
20210119100052 31 238 2.0 10.0 0.00 0.00 0.00 74 1021.8
20210119095529 31 232 4.0 10.0 0.00 0.00 0.00 73 1021.7
20210119095027 31 226 5.0 10.0 0.00 0.00 0.00 73 1021.7
20210119094539 31 255 2.0 10.0 0.00 0.00 0.00 73 1021.7
20210119094053 31 271 5.0 11.0 0.00 0.00 0.00 73 1021.7
20210119093526 31 280 7.0 11.0 0.00 0.00 0.00 73 1021.8
20210119093115 32 280 7.0 11.0 0.00 0.00 0.00 74 1021.8
20210119092525 32 271 5.0 11.0 0.00 0.00 0.00 74 1021.8
20210119092047 32 267 4.0 10.0 0.00 0.00 0.00 74 1021.7
20210119091607 32 272 5.0 10.0 0.00 0.00 0.00 74 1021.7
20210119091037 32 245 3.0 13.0 0.00 0.00 0.00 74 1021.6
20210119090532 32 251 6.0 13.0 0.00 0.00 0.00 75 1021.7
20210119090056 31 238 4.0 8.0 0.00 0.00 0.00 75 1021.6
20210119085525 31 232 3.0 9.0 0.00 0.00 0.00 76 1021.5
20210119085029 31 248 4.0 9.0 0.00 0.00 0.00 76 1021.6
20210119084546 31 243 5.0 8.0 0.00 0.00 0.00 76 1021.5
20210119084043 31 245 4.0 9.0 0.00 0.00 0.00 77 1021.6
20210119083534 31 239 4.0 11.0 0.00 0.00 0.00 77 1021.6
20210119083049 31 229 5.0 11.0 0.00 0.00 0.00 77 1021.5
20210119082537 31 233 5.0 7.0 0.00 0.00 0.00 77 1021.4
20210119082037 31 238 5.0 7.0 0.00 0.00 0.00 76 1021.5
20210119081604 31 234 4.0 7.0 0.00 0.00 0.00 76 1021.4
20210119081024 30 234 4.0 8.0 0.00 0.00 0.00 76 1021.5
20210119080530 31 227 5.0 9.0 0.00 0.00 0.00 76 1021.5
20210119080044 31 224 5.0 9.0 0.00 0.00 0.00 76 1021.4
20210119075524 31 225 6.0 10.0 0.00 0.00 0.00 76 1021.1
20210119075023 31 234 6.0 10.0 0.00 0.00 0.00 76 1021.1
20210119074601 31 236 7.0 10.0 0.00 0.00 0.00 75 1021.3
20210119074026 31 235 7.0 12.0 0.00 0.00 0.00 75 1021.1
20210119073538 31 228 8.0 12.0 0.00 0.00 0.00 75 1021.1
20210119073034 31 238 8.0 12.0 0.00 0.00 0.00 75 1021.0
20210119072535 31 236 9.0 12.0 0.00 0.00 0.00 76 1021.0
20210119072026 31 232 9.0 12.0 0.00 0.00 0.00 75 1021.0
20210119071540 31 232 8.0 12.0 0.00 0.00 0.00 75 1021.0
20210119071035 31 231 7.0 12.0 0.00 0.00 0.00 75 1020.9
20210119070519 31 236 9.0 12.0 0.00 0.00 0.00 75 1020.9
20210119070041 31 223 9.0 12.0 0.00 0.00 0.00 75 1020.9
20210119065524 31 219 9.0 12.0 0.00 0.00 0.00 75 1020.9
20210119065021 31 225 9.0 11.0 0.00 0.00 0.00 75 1020.9
20210119064518 31 224 6.0 11.0 0.00 0.00 0.00 75 1020.8
20210119064029 31 224 7.0 11.0 0.00 0.00 0.00 75 1020.8
20210119063524 31 220 7.0 11.0 0.00 0.00 0.00 76 1020.8
20210119063035 31 215 7.0 10.0 0.00 0.00 0.00 76 1020.8
20210119062511 31 223 6.0 10.0 0.00 0.00 0.00 76 1020.8
20210119062027 30 212 7.0 10.0 0.00 0.00 0.00 76 1020.7
20210119061518 30 224 7.0 9.0 0.00 0.00 0.00 76 1020.6
20210119061011 30 223 6.0 9.0 0.00 0.00 0.00 76 1020.5
20210119060601 30 223 6.0 11.0 0.00 0.00 0.00 75 1020.4
20210119060210 31 215 6.0 11.0 0.00 0.00 0.00 75 1020.4
20210119055559 31 213 5.0 9.0 0.00 0.00 0.00 76 1020.3
20210119055103 31 219 5.0 9.0 0.00 0.00 0.00 76 1020.3
20210119054850 30 221 4.0 9.0 0.00 0.00 0.00 76 1020.2
20210119054059 30 202 4.0 8.0 0.00 0.00 0.00 76 1020.2
20210119053605 30 219 6.0 8.0 0.00 0.00 0.00 76 1020.2
20210119053230 30 232 5.0 8.0 0.00 0.00 0.00 75 1020.2
20210119052559 30 195 5.0 7.0 0.00 0.00 0.00 75 1020.1
20210119052103 30 205 4.0 7.0 0.00 0.00 0.00 75 1020.1
20210119051642 30 202 4.0 10.0 0.00 0.00 0.00 75 1020.2
20210119051054 31 207 4.0 10.0 0.00 0.00 0.00 75 1020.2
20210119050555 31 198 5.0 9.0 0.00 0.00 0.00 75 1020.3
20210119050137 31 202 5.0 9.0 0.00 0.00 0.00 75 1020.3
20210119045605 31 198 5.0 9.0 0.00 0.00 0.00 75 1020.3
20210119045056 31 219 5.0 8.0 0.00 0.00 0.00 75 1020.3
20210119044648 31 200 5.0 9.0 0.00 0.00 0.00 75 1020.4
20210119044101 31 203 5.0 9.0 0.00 0.00 0.00 75 1020.3
20210119043553 31 198 6.0 9.0 0.00 0.00 0.00 75 1020.4
20210119043133 31 184 6.0 9.0 0.00 0.00 0.00 76 1020.4
20210119042601 30 196 6.0 9.0 0.00 0.00 0.00 76 1020.3
20210119042106 30 199 6.0 9.0 0.00 0.00 0.00 76 1020.3
20210119041639 30 188 7.0 10.0 0.00 0.00 0.00 76 1020.1
20210119041055 30 195 7.0 10.0 0.00 0.00 0.00 75 1020.3
20210119040551 31 192 6.0 11.0 0.00 0.00 0.00 75 1020.4
20210119040230 31 192 6.0 10.0 0.00 0.00 0.00 76 1020.4
20210119035558 31 203 6.0 10.0 0.00 0.00 0.00 76 1020.4